Year,Month,Day,Hour,Minute,Value (Times are PST for temperature in C)
2014,07,14,00,00,28.20
2014,07,14,00,01,28.20
2014,07,14,00,02,28.10
2014,07,14,00,03,28.10
2014,07,14,00,04,28.00
2014,07,14,00,05,27.90
2014,07,14,00,06,27.90
2014,07,14,00,07,27.80
2014,07,14,00,08,27.80
2014,07,14,00,09,27.70
2014,07,14,00,10,27.60
2014,07,14,00,11,27.60
2014,07,14,00,12,27.50
2014,07,14,00,13,27.50
2014,07,14,00,14,27.40
2014,07,14,00,15,27.40
2014,07,14,00,16,27.30
2014,07,14,00,17,27.30
2014,07,14,00,18,27.20
2014,07,14,00,19,27.20
2014,07,14,00,20,27.20
2014,07,14,00,21,27.20
2014,07,14,00,22,27.10
2014,07,14,00,23,27.10
2014,07,14,00,24,27.10
2014,07,14,00,25,27.10
2014,07,14,00,26,27.10
2014,07,14,00,27,27.00
2014,07,14,00,28,27.00
2014,07,14,00,29,27.00
2014,07,14,00,30,26.90
2014,07,14,00,31,26.90
2014,07,14,00,32,26.80
2014,07,14,00,33,26.80
2014,07,14,00,34,26.80
2014,07,14,00,35,26.80
2014,07,14,00,36,26.70
2014,07,14,00,37,26.70
2014,07,14,00,38,26.60
2014,07,14,00,39,26.50
2014,07,14,00,40,26.50
2014,07,14,00,41,26.50
2014,07,14,00,42,26.50
2014,07,14,00,43,26.50
2014,07,14,00,44,26.50
2014,07,14,00,45,26.40
2014,07,14,00,46,26.40
2014,07,14,00,47,26.40
2014,07,14,00,48,26.30
2014,07,14,00,49,26.30
2014,07,14,00,50,26.30
2014,07,14,00,51,26.20
2014,07,14,00,52,26.20
2014,07,14,00,53,26.10
2014,07,14,00,54,26.10
2014,07,14,00,55,26.10
2014,07,14,00,56,26.00
2014,07,14,00,57,25.90
2014,07,14,00,58,25.90
2014,07,14,00,59,25.90
2014,07,14,01,00,25.80
2014,07,14,01,01,25.70
2014,07,14,01,02,25.70
2014,07,14,01,03,25.60
2014,07,14,01,04,25.60
2014,07,14,01,05,25.60
2014,07,14,01,06,25.60
2014,07,14,01,07,25.60
2014,07,14,01,08,25.60
2014,07,14,01,09,25.50
2014,07,14,01,10,25.50
2014,07,14,01,11,25.60
2014,07,14,01,12,25.60
2014,07,14,01,13,25.60
2014,07,14,01,14,25.60
2014,07,14,01,15,25.60
2014,07,14,01,16,25.60
2014,07,14,01,17,25.60
2014,07,14,01,18,25.50
2014,07,14,01,19,25.50
2014,07,14,01,20,25.50
2014,07,14,01,21,25.50
2014,07,14,01,22,25.50
2014,07,14,01,23,25.50
2014,07,14,01,24,25.50
2014,07,14,01,25,25.40
2014,07,14,01,26,25.40
2014,07,14,01,27,25.40
2014,07,14,01,28,25.40
2014,07,14,01,29,25.40
2014,07,14,01,30,25.40
2014,07,14,01,31,25.40
2014,07,14,01,32,25.40
2014,07,14,01,33,25.40
2014,07,14,01,34,25.40
2014,07,14,01,35,25.40
2014,07,14,01,36,25.40
2014,07,14,01,37,25.40
2014,07,14,01,38,25.40
2014,07,14,01,39,25.30
2014,07,14,01,40,25.30
2014,07,14,01,41,25.30
2014,07,14,01,42,25.30
2014,07,14,01,43,25.20
2014,07,14,01,44,25.20
2014,07,14,01,45,25.20
2014,07,14,01,46,25.20
2014,07,14,01,47,25.20
2014,07,14,01,48,25.20
2014,07,14,01,49,25.20
2014,07,14,01,50,25.20
2014,07,14,01,51,25.10
2014,07,14,01,52,25.10
2014,07,14,01,53,25.10
2014,07,14,01,54,25.10
2014,07,14,01,55,25.10
2014,07,14,01,56,25.00
2014,07,14,01,57,25.00
2014,07,14,01,58,25.00
2014,07,14,01,59,25.00
2014,07,14,02,00,25.00
2014,07,14,02,01,25.00
2014,07,14,02,02,25.00
2014,07,14,02,03,25.10
2014,07,14,02,04,25.10
2014,07,14,02,05,25.10
2014,07,14,02,06,25.10
2014,07,14,02,07,25.20
2014,07,14,02,08,25.20
2014,07,14,02,09,25.20
2014,07,14,02,10,25.20
2014,07,14,02,11,25.20
2014,07,14,02,12,25.20
2014,07,14,02,13,25.20
2014,07,14,02,14,25.20
2014,07,14,02,15,25.20
2014,07,14,02,16,25.20
2014,07,14,02,17,25.30
2014,07,14,02,18,25.30
2014,07,14,02,19,25.30
2014,07,14,02,20,25.30
2014,07,14,02,21,25.30
2014,07,14,02,22,25.30
2014,07,14,02,23,25.40
2014,07,14,02,24,25.30
2014,07,14,02,25,25.30
2014,07,14,02,26,25.40
2014,07,14,02,27,25.40
2014,07,14,02,28,25.40
2014,07,14,02,29,25.40
2014,07,14,02,30,25.40
2014,07,14,02,31,25.40
2014,07,14,02,32,25.40
2014,07,14,02,33,25.40
2014,07,14,02,34,25.40
2014,07,14,02,35,25.30
2014,07,14,02,36,25.30
2014,07,14,02,37,25.30
2014,07,14,02,38,25.30
2014,07,14,02,39,25.20
2014,07,14,02,40,25.20
2014,07,14,02,41,25.20
2014,07,14,02,42,25.20
2014,07,14,02,43,25.20
2014,07,14,02,44,25.20
2014,07,14,02,45,25.20
2014,07,14,02,46,25.20
2014,07,14,02,47,25.20
2014,07,14,02,48,25.10
2014,07,14,02,49,25.10
2014,07,14,02,50,25.10
2014,07,14,02,51,25.10
2014,07,14,02,52,25.00
2014,07,14,02,53,25.00
2014,07,14,02,54,25.00
2014,07,14,02,55,24.90
2014,07,14,02,56,24.90
2014,07,14,02,57,24.90
2014,07,14,02,58,24.90
2014,07,14,02,59,24.90
2014,07,14,03,00,24.90
2014,07,14,03,01,24.90
2014,07,14,03,02,24.90
2014,07,14,03,03,24.90
2014,07,14,03,04,24.90
2014,07,14,03,05,24.90
2014,07,14,03,06,24.80
2014,07,14,03,07,24.80
2014,07,14,03,08,24.80
2014,07,14,03,09,24.80
2014,07,14,03,10,24.80
2014,07,14,03,11,24.70
2014,07,14,03,12,24.70
2014,07,14,03,13,24.70
2014,07,14,03,14,24.70
2014,07,14,03,15,24.70
2014,07,14,03,16,24.60
2014,07,14,03,17,24.60
2014,07,14,03,18,24.60
2014,07,14,03,19,24.60
2014,07,14,03,20,24.60
2014,07,14,03,21,24.60
2014,07,14,03,22,24.50
2014,07,14,03,23,24.50
2014,07,14,03,24,24.40
2014,07,14,03,25,24.40
2014,07,14,03,26,24.40
2014,07,14,03,27,24.40
2014,07,14,03,28,24.30
2014,07,14,03,29,24.30
2014,07,14,03,30,24.30
2014,07,14,03,31,24.30
2014,07,14,03,32,24.30
2014,07,14,03,33,24.30
2014,07,14,03,34,24.20
2014,07,14,03,35,24.20
2014,07,14,03,36,24.10
2014,07,14,03,37,24.10
2014,07,14,03,38,24.10
2014,07,14,03,39,24.10
2014,07,14,03,40,24.00
2014,07,14,03,41,24.00
2014,07,14,03,42,24.00
2014,07,14,03,43,23.90
2014,07,14,03,44,23.90
2014,07,14,03,45,23.90
2014,07,14,03,46,23.80
2014,07,14,03,47,23.80
2014,07,14,03,48,23.80
2014,07,14,03,49,23.80
2014,07,14,03,50,23.80
2014,07,14,03,51,23.70
2014,07,14,03,52,23.70
2014,07,14,03,53,23.70
2014,07,14,03,54,23.70
2014,07,14,03,55,23.70
2014,07,14,03,56,23.60
2014,07,14,03,57,23.60
2014,07,14,03,58,23.60
2014,07,14,03,59,23.60
2014,07,14,04,00,23.60
2014,07,14,04,01,23.60
2014,07,14,04,02,23.50
2014,07,14,04,03,23.50
2014,07,14,04,04,23.50
2014,07,14,04,05,23.40
2014,07,14,04,06,23.40
2014,07,14,04,07,23.40
2014,07,14,04,08,23.40
2014,07,14,04,09,23.40
2014,07,14,04,10,23.40
2014,07,14,04,11,23.40
2014,07,14,04,12,23.30
2014,07,14,04,13,23.30
2014,07,14,04,14,23.30
2014,07,14,04,15,23.30
2014,07,14,04,16,23.30
2014,07,14,04,17,23.30
2014,07,14,04,18,23.30
2014,07,14,04,19,23.30
2014,07,14,04,20,23.30
2014,07,14,04,21,23.30
2014,07,14,04,22,23.30
2014,07,14,04,23,23.30
2014,07,14,04,24,23.30
2014,07,14,04,25,23.30
2014,07,14,04,26,23.30
2014,07,14,04,27,23.30
2014,07,14,04,28,23.30
2014,07,14,04,29,23.30
2014,07,14,04,30,23.30
2014,07,14,04,31,23.30
2014,07,14,04,32,23.30
2014,07,14,04,33,23.30
2014,07,14,04,34,23.30
2014,07,14,04,35,23.30
2014,07,14,04,36,23.30
2014,07,14,04,37,23.30
2014,07,14,04,38,23.30
2014,07,14,04,39,23.30
2014,07,14,04,40,23.30
2014,07,14,04,41,23.30
2014,07,14,04,42,23.30
2014,07,14,04,43,23.30
2014,07,14,04,44,23.30
2014,07,14,04,45,23.30
2014,07,14,04,46,23.30
2014,07,14,04,47,23.30
2014,07,14,04,48,23.40
2014,07,14,04,49,23.40
2014,07,14,04,50,23.40
2014,07,14,04,51,23.40
2014,07,14,04,52,23.40
2014,07,14,04,53,23.40
2014,07,14,04,54,23.30
2014,07,14,04,55,23.40
2014,07,14,04,56,23.40
2014,07,14,04,57,23.40
2014,07,14,04,58,23.40
2014,07,14,04,59,23.30
2014,07,14,05,00,23.30
2014,07,14,05,01,23.30
2014,07,14,05,02,23.30
2014,07,14,05,03,23.30
2014,07,14,05,04,23.30
2014,07,14,05,05,23.30
2014,07,14,05,06,23.30
2014,07,14,05,07,23.20
2014,07,14,05,08,23.20
2014,07,14,05,09,23.20
2014,07,14,05,10,23.20
2014,07,14,05,11,23.20
2014,07,14,05,12,23.20
2014,07,14,05,13,23.10
2014,07,14,05,14,23.10
2014,07,14,05,15,23.10
2014,07,14,05,16,23.00
2014,07,14,05,17,23.00
2014,07,14,05,18,23.00
2014,07,14,05,19,23.00
2014,07,14,05,20,22.90
2014,07,14,05,21,22.90
2014,07,14,05,22,22.90
2014,07,14,05,23,22.90
2014,07,14,05,24,22.90
2014,07,14,05,25,22.90
2014,07,14,05,26,22.90
2014,07,14,05,27,22.90
2014,07,14,05,28,22.80
2014,07,14,05,29,22.80
2014,07,14,05,30,22.80
2014,07,14,05,31,22.80
2014,07,14,05,32,22.70
2014,07,14,05,33,22.70
2014,07,14,05,34,22.60
2014,07,14,05,35,22.50
2014,07,14,05,36,22.50
2014,07,14,05,37,22.40
2014,07,14,05,38,22.40
2014,07,14,05,39,22.30
2014,07,14,05,40,22.30
2014,07,14,05,41,22.20
2014,07,14,05,42,22.20
2014,07,14,05,43,22.10
2014,07,14,05,44,22.10
2014,07,14,05,45,22.00
2014,07,14,05,46,21.90
2014,07,14,05,47,21.90
2014,07,14,05,48,21.80
2014,07,14,05,49,21.80
2014,07,14,05,50,21.80
2014,07,14,05,51,21.70
2014,07,14,05,52,21.70
2014,07,14,05,53,21.70
2014,07,14,05,54,21.70
2014,07,14,05,55,21.60
2014,07,14,05,56,21.60
2014,07,14,05,57,21.60
2014,07,14,05,58,21.60
2014,07,14,05,59,21.60
2014,07,14,06,00,21.50
2014,07,14,06,01,21.50
2014,07,14,06,02,21.50
2014,07,14,06,03,21.40
2014,07,14,06,04,21.40
2014,07,14,06,05,21.40
2014,07,14,06,06,21.40
2014,07,14,06,07,21.40
2014,07,14,06,08,21.30
2014,07,14,06,09,21.30
2014,07,14,06,10,21.30
2014,07,14,06,11,21.30
2014,07,14,06,12,21.30
2014,07,14,06,13,21.20
2014,07,14,06,14,21.20
2014,07,14,06,15,21.20
2014,07,14,06,16,21.20
2014,07,14,06,17,21.20
2014,07,14,06,18,21.20
2014,07,14,06,19,21.20
2014,07,14,06,20,21.20
2014,07,14,06,21,21.20
2014,07,14,06,22,21.20
2014,07,14,06,23,21.30
2014,07,14,06,24,21.30
2014,07,14,06,25,21.40
2014,07,14,06,26,21.40
2014,07,14,06,27,21.40
2014,07,14,06,28,21.40
2014,07,14,06,29,21.50
2014,07,14,06,30,21.50
2014,07,14,06,31,21.50
2014,07,14,06,32,21.60
2014,07,14,06,33,21.60
2014,07,14,06,34,21.60
2014,07,14,06,35,21.60
2014,07,14,06,36,21.60
2014,07,14,06,37,21.60
2014,07,14,06,38,21.60
2014,07,14,06,39,21.60
2014,07,14,06,40,21.60
2014,07,14,06,41,21.70
2014,07,14,06,42,21.70
2014,07,14,06,43,21.70
2014,07,14,06,44,21.70
2014,07,14,06,45,21.70
2014,07,14,06,46,21.80
2014,07,14,06,47,21.80
2014,07,14,06,48,21.80
2014,07,14,06,49,21.80
2014,07,14,06,50,21.80
2014,07,14,06,51,21.80
2014,07,14,06,52,21.80
2014,07,14,06,53,21.80
2014,07,14,06,54,21.80
2014,07,14,06,55,21.90
2014,07,14,06,56,21.90
2014,07,14,06,57,21.90
2014,07,14,06,58,22.00
2014,07,14,06,59,22.00
2014,07,14,07,00,22.00
2014,07,14,07,01,22.00
2014,07,14,07,02,22.00
2014,07,14,07,03,21.90
2014,07,14,07,04,21.90
2014,07,14,07,05,21.90
2014,07,14,07,06,21.90
2014,07,14,07,07,21.90
2014,07,14,07,08,21.90
2014,07,14,07,09,21.90
2014,07,14,07,10,21.90
2014,07,14,07,11,21.90
2014,07,14,07,12,22.00
2014,07,14,07,13,22.00
2014,07,14,07,14,22.10
2014,07,14,07,15,22.10
2014,07,14,07,16,22.10
2014,07,14,07,17,22.20
2014,07,14,07,18,22.20
2014,07,14,07,19,22.20
2014,07,14,07,20,22.30
2014,07,14,07,21,22.30
2014,07,14,07,22,22.30
2014,07,14,07,23,22.40
2014,07,14,07,24,22.40
2014,07,14,07,25,22.40
2014,07,14,07,26,22.50
2014,07,14,07,27,22.50
2014,07,14,07,28,22.50
2014,07,14,07,29,22.60
2014,07,14,07,30,22.60
2014,07,14,07,31,22.60
2014,07,14,07,32,22.70
2014,07,14,07,33,22.70
2014,07,14,07,34,22.70
2014,07,14,07,35,22.80
2014,07,14,07,36,22.80
2014,07,14,07,37,22.80
2014,07,14,07,38,22.90
2014,07,14,07,39,22.90
2014,07,14,07,40,22.90
2014,07,14,07,41,22.90
2014,07,14,07,42,22.90
2014,07,14,07,43,22.90
2014,07,14,07,44,23.00
2014,07,14,07,45,23.00
2014,07,14,07,46,23.00
2014,07,14,07,47,23.10
2014,07,14,07,48,23.10
2014,07,14,07,49,23.10
2014,07,14,07,50,23.10
2014,07,14,07,51,23.00
2014,07,14,07,52,23.00
2014,07,14,07,53,22.90
2014,07,14,07,54,22.90
2014,07,14,07,55,22.90
2014,07,14,07,56,22.90
2014,07,14,07,57,22.90
2014,07,14,07,58,22.80
2014,07,14,07,59,22.80
2014,07,14,08,00,22.80
2014,07,14,08,01,22.70
2014,07,14,08,02,22.70
2014,07,14,08,03,22.70
2014,07,14,08,04,22.60
2014,07,14,08,05,22.60
2014,07,14,08,06,22.50
2014,07,14,08,07,22.40
2014,07,14,08,08,22.40
2014,07,14,08,09,22.40
2014,07,14,08,10,22.40
2014,07,14,08,11,22.40
2014,07,14,08,12,22.40
2014,07,14,08,13,22.50
2014,07,14,08,14,22.50
2014,07,14,08,15,22.50
2014,07,14,08,16,22.40
2014,07,14,08,17,22.40
2014,07,14,08,18,22.40
2014,07,14,08,19,22.40
2014,07,14,08,20,22.40
2014,07,14,08,21,22.40
2014,07,14,08,22,22.40
2014,07,14,08,23,22.40
2014,07,14,08,24,22.40
2014,07,14,08,25,22.40
2014,07,14,08,26,22.40
2014,07,14,08,27,22.40
2014,07,14,08,28,22.40
2014,07,14,08,29,22.30
2014,07,14,08,30,22.30
2014,07,14,08,31,22.20
2014,07,14,08,32,22.10
2014,07,14,08,33,22.10
2014,07,14,08,34,22.00
2014,07,14,08,35,22.00
2014,07,14,08,36,21.90
2014,07,14,08,37,21.90
2014,07,14,08,38,21.80
2014,07,14,08,39,21.80
2014,07,14,08,40,21.80
2014,07,14,08,41,21.70
2014,07,14,08,42,21.60
2014,07,14,08,43,21.60
2014,07,14,08,44,21.60
2014,07,14,08,45,21.50
2014,07,14,08,46,21.40
2014,07,14,08,47,21.40
2014,07,14,08,48,21.30
2014,07,14,08,49,21.30
2014,07,14,08,50,21.30
2014,07,14,08,51,21.30
2014,07,14,08,52,21.30
2014,07,14,08,53,21.30
2014,07,14,08,54,21.30
2014,07,14,08,55,21.40
2014,07,14,08,56,21.40
2014,07,14,08,57,21.50
2014,07,14,08,58,21.60
2014,07,14,08,59,21.60
2014,07,14,09,00,21.70
2014,07,14,09,01,21.80
2014,07,14,09,02,21.90
2014,07,14,09,03,22.00
2014,07,14,09,04,22.20
2014,07,14,09,05,22.30
2014,07,14,09,06,22.50
2014,07,14,09,07,22.60
2014,07,14,09,08,22.70
2014,07,14,09,09,22.80
2014,07,14,09,10,22.80
2014,07,14,09,11,23.00
2014,07,14,09,12,23.10
2014,07,14,09,13,23.20
2014,07,14,09,14,23.30
2014,07,14,09,15,23.40
2014,07,14,09,16,23.50
2014,07,14,09,17,23.60
2014,07,14,09,18,23.60
2014,07,14,09,19,23.70
2014,07,14,09,20,23.70
2014,07,14,09,21,23.70
2014,07,14,09,22,23.70
2014,07,14,09,23,23.70
2014,07,14,09,24,23.70
2014,07,14,09,25,23.80
2014,07,14,09,26,23.80
2014,07,14,09,27,23.80
2014,07,14,09,28,23.70
2014,07,14,09,29,23.70
2014,07,14,09,30,23.70
2014,07,14,09,31,23.80
2014,07,14,09,32,23.80
2014,07,14,09,33,23.90
2014,07,14,09,34,23.90
2014,07,14,09,35,24.00
2014,07,14,09,36,24.10
2014,07,14,09,37,24.20
2014,07,14,09,38,24.30
2014,07,14,09,39,24.30
2014,07,14,09,40,24.30
2014,07,14,09,41,24.30
2014,07,14,09,42,24.30
2014,07,14,09,43,24.30
2014,07,14,09,44,24.20
2014,07,14,09,45,24.20
2014,07,14,09,46,24.10
2014,07,14,09,47,24.10
2014,07,14,09,48,24.10
2014,07,14,09,49,24.00
2014,07,14,09,50,24.00
2014,07,14,09,51,23.90
2014,07,14,09,52,23.80
2014,07,14,09,53,23.70
2014,07,14,09,54,23.60
2014,07,14,09,55,23.50
2014,07,14,09,56,23.50
2014,07,14,09,57,23.40
2014,07,14,09,58,23.50
2014,07,14,09,59,23.60
2014,07,14,10,00,23.60
2014,07,14,10,01,23.70
2014,07,14,10,02,23.80
2014,07,14,10,03,23.80
2014,07,14,10,04,23.70
2014,07,14,10,05,23.70
2014,07,14,10,06,23.70
2014,07,14,10,07,23.70
2014,07,14,10,08,23.70
2014,07,14,10,09,23.70
2014,07,14,10,10,23.80
2014,07,14,10,11,23.90
2014,07,14,10,12,23.90
2014,07,14,10,13,24.00
2014,07,14,10,14,24.10
2014,07,14,10,15,24.20
2014,07,14,10,16,24.30
2014,07,14,10,17,24.30
2014,07,14,10,18,24.40
2014,07,14,10,19,24.40
2014,07,14,10,20,24.40
2014,07,14,10,21,24.40
2014,07,14,10,22,24.50
2014,07,14,10,23,24.50
2014,07,14,10,24,24.60
2014,07,14,10,25,24.60
2014,07,14,10,26,24.60
2014,07,14,10,27,24.60
2014,07,14,10,28,24.60
2014,07,14,10,29,24.50
2014,07,14,10,30,24.40
2014,07,14,10,31,24.30
2014,07,14,10,32,24.20
2014,07,14,10,33,24.20
2014,07,14,10,34,24.10
2014,07,14,10,35,24.10
2014,07,14,10,36,24.10
2014,07,14,10,37,24.10
2014,07,14,10,38,24.10
2014,07,14,10,39,24.00
2014,07,14,10,40,23.90
2014,07,14,10,41,23.90
2014,07,14,10,42,23.90
2014,07,14,10,43,23.90
2014,07,14,10,44,24.00
2014,07,14,10,45,24.10
2014,07,14,10,46,24.20
2014,07,14,10,47,24.30
2014,07,14,10,48,24.40
2014,07,14,10,49,24.50
2014,07,14,10,50,24.60
2014,07,14,10,51,24.70
2014,07,14,10,52,24.60
2014,07,14,10,53,24.60
2014,07,14,10,54,24.50
2014,07,14,10,55,24.50
2014,07,14,10,56,24.40
2014,07,14,10,57,24.30
2014,07,14,10,58,24.20
2014,07,14,10,59,24.10
2014,07,14,11,00,23.90
2014,07,14,11,01,23.80
2014,07,14,11,02,23.60
2014,07,14,11,03,23.50
2014,07,14,11,04,23.40
2014,07,14,11,05,23.30
2014,07,14,11,06,23.20
2014,07,14,11,07,23.20
2014,07,14,11,08,23.10
2014,07,14,11,09,23.00
2014,07,14,11,10,23.00
2014,07,14,11,11,23.00
2014,07,14,11,12,23.10
2014,07,14,11,13,23.10
2014,07,14,11,14,23.10
2014,07,14,11,15,23.20
2014,07,14,11,16,23.30
2014,07,14,11,17,23.30
2014,07,14,11,18,23.30
2014,07,14,11,19,23.30
2014,07,14,11,20,23.30
2014,07,14,11,21,23.30
2014,07,14,11,22,23.40
2014,07,14,11,23,23.50
2014,07,14,11,24,23.60
2014,07,14,11,25,23.80
2014,07,14,11,26,23.90
2014,07,14,11,27,24.10
2014,07,14,11,28,24.30
2014,07,14,11,29,24.40
2014,07,14,11,30,24.50
2014,07,14,11,31,24.70
2014,07,14,11,32,24.80
2014,07,14,11,33,24.90
2014,07,14,11,34,25.00
2014,07,14,11,35,25.20
2014,07,14,11,36,25.30
2014,07,14,11,37,25.50
2014,07,14,11,38,25.60
2014,07,14,11,39,25.60
2014,07,14,11,40,25.70
2014,07,14,11,41,25.80
2014,07,14,11,42,25.90
2014,07,14,11,43,26.00
2014,07,14,11,44,26.10
2014,07,14,11,45,26.10
2014,07,14,11,46,26.20
2014,07,14,11,47,26.20
2014,07,14,11,48,26.30
2014,07,14,11,49,26.30
2014,07,14,11,50,26.30
2014,07,14,11,51,26.30
2014,07,14,11,52,26.30
2014,07,14,11,53,26.40
2014,07,14,11,54,26.40
2014,07,14,11,55,26.40
2014,07,14,11,56,26.40
2014,07,14,11,57,26.50
2014,07,14,11,58,26.60
2014,07,14,11,59,26.60
2014,07,14,12,00,26.70
2014,07,14,12,01,26.90
2014,07,14,12,02,27.00
2014,07,14,12,03,27.10
2014,07,14,12,04,27.00
2014,07,14,12,05,27.00
2014,07,14,12,06,26.90
2014,07,14,12,07,26.80
2014,07,14,12,08,26.90
2014,07,14,12,09,26.90
2014,07,14,12,10,26.90
2014,07,14,12,11,26.90
2014,07,14,12,12,26.90
2014,07,14,12,13,26.90
2014,07,14,12,14,26.90
2014,07,14,12,15,26.90
2014,07,14,12,16,26.90
2014,07,14,12,17,26.90
2014,07,14,12,18,26.90
2014,07,14,12,19,26.90
2014,07,14,12,20,26.80
2014,07,14,12,21,26.90
2014,07,14,12,22,27.00
2014,07,14,12,23,27.10
2014,07,14,12,24,27.30
2014,07,14,12,25,27.40
2014,07,14,12,26,27.40
2014,07,14,12,27,27.40
2014,07,14,12,28,27.50
2014,07,14,12,29,27.50
2014,07,14,12,30,27.40
2014,07,14,12,31,27.40
2014,07,14,12,32,27.30
2014,07,14,12,33,27.30
2014,07,14,12,34,27.20
2014,07,14,12,35,27.20
2014,07,14,12,36,27.30
2014,07,14,12,37,27.30
2014,07,14,12,38,27.40
2014,07,14,12,39,27.40
2014,07,14,12,40,27.40
2014,07,14,12,41,27.40
2014,07,14,12,42,27.40
2014,07,14,12,43,27.40
2014,07,14,12,44,27.30
2014,07,14,12,45,27.30
2014,07,14,12,46,27.20
2014,07,14,12,47,27.20
2014,07,14,12,48,27.20
2014,07,14,12,49,27.30
2014,07,14,12,50,27.40
2014,07,14,12,51,27.50
2014,07,14,12,52,27.50
2014,07,14,12,53,27.50
2014,07,14,12,54,27.50
2014,07,14,12,55,27.40
2014,07,14,12,56,27.40
2014,07,14,12,57,27.40
2014,07,14,12,58,27.40
2014,07,14,12,59,27.40
2014,07,14,13,00,27.40
2014,07,14,13,01,27.50
2014,07,14,13,02,27.60
2014,07,14,13,03,27.70
2014,07,14,13,04,27.80
2014,07,14,13,05,27.80
2014,07,14,13,06,27.80
2014,07,14,13,07,27.70
2014,07,14,13,08,27.50
2014,07,14,13,09,27.50
2014,07,14,13,10,27.60
2014,07,14,13,11,27.60
2014,07,14,13,12,27.60
2014,07,14,13,13,27.60
2014,07,14,13,14,27.60
2014,07,14,13,15,27.70
2014,07,14,13,16,27.80
2014,07,14,13,17,27.90
2014,07,14,13,18,28.00
2014,07,14,13,19,28.10
2014,07,14,13,20,28.20
2014,07,14,13,21,28.20
2014,07,14,13,22,28.10
2014,07,14,13,23,28.00
2014,07,14,13,24,28.00
2014,07,14,13,25,28.00
2014,07,14,13,26,28.00
2014,07,14,13,27,28.00
2014,07,14,13,28,28.00
2014,07,14,13,29,28.10
2014,07,14,13,30,28.30
2014,07,14,13,31,28.30
2014,07,14,13,32,28.40
2014,07,14,13,33,28.50
2014,07,14,13,34,28.70
2014,07,14,13,35,28.70
2014,07,14,13,36,28.80
2014,07,14,13,37,28.80
2014,07,14,13,38,28.90
2014,07,14,13,39,28.90
2014,07,14,13,40,28.80
2014,07,14,13,41,28.80
2014,07,14,13,42,28.80
2014,07,14,13,43,28.80
2014,07,14,13,44,28.80
2014,07,14,13,45,28.90
2014,07,14,13,46,29.00
2014,07,14,13,47,29.10
2014,07,14,13,48,29.20
2014,07,14,13,49,29.20
2014,07,14,13,50,29.20
2014,07,14,13,51,29.30
2014,07,14,13,52,29.30
2014,07,14,13,53,29.30
2014,07,14,13,54,29.20
2014,07,14,13,55,29.10
2014,07,14,13,56,29.00
2014,07,14,13,57,29.00
2014,07,14,13,58,29.00
2014,07,14,13,59,29.00
2014,07,14,14,00,29.00
2014,07,14,14,01,29.00
2014,07,14,14,02,29.00
2014,07,14,14,03,29.00
2014,07,14,14,04,29.00
2014,07,14,14,05,29.10
2014,07,14,14,06,29.10
2014,07,14,14,07,29.10
2014,07,14,14,08,29.20
2014,07,14,14,09,29.30
2014,07,14,14,10,29.30
2014,07,14,14,11,29.30
2014,07,14,14,12,29.30
2014,07,14,14,13,29.30
2014,07,14,14,14,29.40
2014,07,14,14,15,29.30
2014,07,14,14,16,29.30
2014,07,14,14,17,29.30
2014,07,14,14,18,29.40
2014,07,14,14,19,29.30
2014,07,14,14,20,29.20
2014,07,14,14,21,29.10
2014,07,14,14,22,29.00
2014,07,14,14,23,29.00
2014,07,14,14,24,28.80
2014,07,14,14,25,28.80
2014,07,14,14,26,28.70
2014,07,14,14,27,28.80
2014,07,14,14,28,28.80
2014,07,14,14,29,28.80
2014,07,14,14,30,28.80
2014,07,14,14,31,28.90
2014,07,14,14,32,29.00
2014,07,14,14,33,29.10
2014,07,14,14,34,29.10
2014,07,14,14,35,29.20
2014,07,14,14,36,29.20
2014,07,14,14,37,29.30
2014,07,14,14,38,29.30
2014,07,14,14,39,29.30
2014,07,14,14,40,29.30
2014,07,14,14,41,29.30
2014,07,14,14,42,29.30
2014,07,14,14,43,29.30
2014,07,14,14,44,29.40
2014,07,14,14,45,29.50
2014,07,14,14,46,29.50
2014,07,14,14,47,29.50
2014,07,14,14,48,29.50
2014,07,14,14,49,29.50
2014,07,14,14,50,29.40
2014,07,14,14,51,29.40
2014,07,14,14,52,29.40
2014,07,14,14,53,29.50
2014,07,14,14,54,29.60
2014,07,14,14,55,29.70
2014,07,14,14,56,29.70
2014,07,14,14,57,29.90
2014,07,14,14,58,30.00
2014,07,14,14,59,30.00
2014,07,14,15,00,29.90
2014,07,14,15,01,29.90
2014,07,14,15,02,29.80
2014,07,14,15,03,29.70
2014,07,14,15,04,29.70
2014,07,14,15,05,29.80
2014,07,14,15,06,29.80
2014,07,14,15,07,29.90
2014,07,14,15,08,30.00
2014,07,14,15,09,30.10
2014,07,14,15,10,30.10
2014,07,14,15,11,30.20
2014,07,14,15,12,30.30
2014,07,14,15,13,30.30
2014,07,14,15,14,30.30
2014,07,14,15,15,30.30
2014,07,14,15,16,30.40
2014,07,14,15,17,30.40
2014,07,14,15,18,30.40
2014,07,14,15,19,30.50
2014,07,14,15,20,30.60
2014,07,14,15,21,30.50
2014,07,14,15,22,30.50
2014,07,14,15,23,30.60
2014,07,14,15,24,30.60
2014,07,14,15,25,30.70
2014,07,14,15,26,30.70
2014,07,14,15,27,30.70
2014,07,14,15,28,30.60
2014,07,14,15,29,30.60
2014,07,14,15,30,30.50
2014,07,14,15,31,30.40
2014,07,14,15,32,30.30
2014,07,14,15,33,30.30
2014,07,14,15,34,30.40
2014,07,14,15,35,30.40
2014,07,14,15,36,30.40
2014,07,14,15,37,30.50
2014,07,14,15,38,30.60
2014,07,14,15,39,30.60
2014,07,14,15,40,30.70
2014,07,14,15,41,30.80
2014,07,14,15,42,30.80
2014,07,14,15,43,30.70
2014,07,14,15,44,30.70
2014,07,14,15,45,30.70
2014,07,14,15,46,30.70
2014,07,14,15,47,30.70
2014,07,14,15,48,30.70
2014,07,14,15,49,30.70
2014,07,14,15,50,30.70
2014,07,14,15,51,30.60
2014,07,14,15,52,30.50
2014,07,14,15,53,30.30
2014,07,14,15,54,30.20
2014,07,14,15,55,29.90
2014,07,14,15,56,29.60
2014,07,14,15,57,29.30
2014,07,14,15,58,29.10
2014,07,14,15,59,28.80
2014,07,14,16,00,28.70
2014,07,14,16,01,28.70
2014,07,14,16,02,28.60
2014,07,14,16,03,28.50
2014,07,14,16,04,28.40
2014,07,14,16,05,28.30
2014,07,14,16,06,28.30
2014,07,14,16,07,28.30
2014,07,14,16,08,28.40
2014,07,14,16,09,28.30
2014,07,14,16,10,28.10
2014,07,14,16,11,27.90
2014,07,14,16,12,27.80
2014,07,14,16,13,27.70
2014,07,14,16,14,27.60
2014,07,14,16,15,27.60
2014,07,14,16,16,27.60
2014,07,14,16,17,27.60
2014,07,14,16,18,27.80
2014,07,14,16,19,27.90
2014,07,14,16,20,28.00
2014,07,14,16,21,28.20
2014,07,14,16,22,28.30
2014,07,14,16,23,28.40
2014,07,14,16,24,28.50
2014,07,14,16,25,28.50
2014,07,14,16,26,28.60
2014,07,14,16,27,28.60
2014,07,14,16,28,28.40
2014,07,14,16,29,28.30
2014,07,14,16,30,28.20
2014,07,14,16,31,28.20
2014,07,14,16,32,28.10
2014,07,14,16,33,28.20
2014,07,14,16,34,28.20
2014,07,14,16,35,28.20
2014,07,14,16,36,28.30
2014,07,14,16,37,28.50
2014,07,14,16,38,28.60
2014,07,14,16,39,28.70
2014,07,14,16,40,28.80
2014,07,14,16,41,28.90
2014,07,14,16,42,29.00
2014,07,14,16,43,29.00
2014,07,14,16,44,28.90
2014,07,14,16,45,28.90
2014,07,14,16,46,29.00
2014,07,14,16,47,29.10
2014,07,14,16,48,29.20
2014,07,14,16,49,29.30
2014,07,14,16,50,29.40
2014,07,14,16,51,29.50
2014,07,14,16,52,29.60
2014,07,14,16,53,29.60
2014,07,14,16,54,29.60
2014,07,14,16,55,29.60
2014,07,14,16,56,29.60
2014,07,14,16,57,29.70
2014,07,14,16,58,29.70
2014,07,14,16,59,29.70
2014,07,14,17,00,29.70
2014,07,14,17,01,29.70
2014,07,14,17,02,29.70
2014,07,14,17,03,29.70
2014,07,14,17,04,29.70
2014,07,14,17,05,29.70
2014,07,14,17,06,29.70
2014,07,14,17,07,29.80
2014,07,14,17,08,29.80
2014,07,14,17,09,29.90
2014,07,14,17,10,30.10
2014,07,14,17,11,30.10
2014,07,14,17,12,30.10
2014,07,14,17,13,30.20
2014,07,14,17,14,30.20
2014,07,14,17,15,30.30
2014,07,14,17,16,30.30
2014,07,14,17,17,30.40
2014,07,14,17,18,30.40
2014,07,14,17,19,30.50